Погода в Валдесе

США     61°07′49″N   146°21′21″W
темп.,
°C
ветер,
м/с
пор.,
м/с
влажн.,
%
обл.,
%
осадки,
мм/ч
давл.,
гПа
погр.,
м
21 октября, чт
чт2101:00−2св4496100 3.1 99688
04:00−1в2298100 7.3 99762
07:00−1ююв3499100 5.4 997247
10:00−2ююз3499100 11.1 1000195
13:00−2ююз22100100 5.6 1000135
16:00−1ю22100100 8.1 998160
19:00−2ююв119382 0.3 99647
22:00−6ссв338926 0.3 99521
22 октября, пт
пт2201:00−5ссв4471100 0.0 99121
04:00−3ссв4372100 0.0 98824
07:00−4ссв4486100 0.1 98654
10:00−4ссв448775 0.1 98549
13:00−3ссв4486100 0.0 98373
16:00−3ссв5584100 0.0 98166
19:00−6ссв668575 0.0 98349
22:00−3ссв4486100 0.2 98255
23 октября, сб
сб2301:00−3всв2295100 3.6 98428
04:00−2вюв1298100 7.8 98748
07:00−4ссз1297100 0.5 98814
10:00−2ссв2286100 0.5 98718
13:00−1ссв448285 0.0 98645
16:00−4ссв228596 0.0 98910
19:00−5с2388100 0.0 99216
22:00−3с2288100 0.1 99515
24 октября, вс
вс2401:00−4з1297100 0.4 99728
04:00−2юз2299100 2.1 99976
07:00−3зюз2293100 0.1 100047
10:00−7с228936 0.1 100211
13:00−4ссз129184 0.0 100117
16:00−4ссв33865 0.0 100024
19:00−7ссв66823 0.0 100039
22:00−7ссв77764 0.0 99850
25 октября, пн
пн2501:00−6ссв77814 0.0 99758
04:00−6ссв788826 0.0 99688
07:00−6ссв788847 0.0 995123
10:00−7ссв898867 0.1 994150
13:00−5ссв788747 0.0 994203
16:00−6ссв7987100 0.1 994186
19:00−7ссв8987100 0.0 994158
22:00−7ссв7987100 0.0 994148